Location: Cieszkowy
(50.3290°N, 20.5336°E)
Time: 23:05:51
(UTC+00:00)

Cosmos 1726 Rocket - Pass Details

Date: 15 June 2024
Orbit: 599 x 626 km, 82.5° (Epoch: 18 July)

Event Time Altitude Azimuth Distance (km) Brightness Sun altitude
Rises 00:53:23 0° 353° (N) 2,926 7.9 -10.5°
Reaches altitude 10° 00:55:41 10° 358° (N) 2,012 7.1 -10.3°
Maximum altitude 01:00:03 53° 76° (ENE) 769 4.4 -10.0°
Drops below altitude 10° 01:04:22 10° 154° (SSE) 1,986 5.9 -9.6°
Sets 01:06:37 0° 159° (SSE) 2,883 6.6 -9.4°
